Change the Weather History Date:

Monday, June 17, 2013

  Actual Average (KPDC) Record (KPDC)
Temperature  
Mean Temperature 72 °F -  
Max Temperature 89 °F 80 °F 93 °F (1962)
Min Temperature 57 °F 56 °F 41 °F (1960)
Cooling Degree Days 8    
Growing Degree Days 22 (Base 50)    
Moisture  
Dew Point 57 °F    
Average Humidity 60    
Maximum Humidity 93    
Minimum Humidity 31    
Precipitation  
Precipitation 0.00 in - - ()
Sea Level Pressure  
Sea Level Pressure 29.91 in    
Wind  
Wind Speed 3 mph (West)    
Max Wind Speed 8 mph    
Max Gust Speed 17 mph    
Visibility 10 miles    
Events      
Averages and records for this station are not official NWS values.
T = Trace of Precipitation, MM = Missing Value Source: NWS Daily Summary

Daily Weather History Graph

Daily Weather History Graph

Search for Another Location

Airport or City:

Trip Planner

Search our weather history database for the weather conditions in past years. The results will help you decide how hot, cold, wet, or windy it might be!

Date:

Astronomy

Jun. 17, 2013 Rise Set
Actual Time 5:22 AM CDT 8:45 PM CDT
Civil Twilight 4:46 AM CDT 9:20 PM CDT
Nautical Twilight 4:00 AM CDT 10:06 PM CDT
Astronomical Twilight 3:03 AM CDT 11:04 PM CDT
Moon 2:15 PM CDT (6/17) 1:07 AM CDT (6/17)
Length of Visible Light 16h 33m
Length of Day
15h 22m
First Quarter, 60% of the Moon is Illuminated
Jun 17
First Quarter
Jun 23
Full
Jun 29
Last Quarter
Jul 8
New
Jul 15
First Quarter

Hourly Weather History & Observations

Time (CDT) Temp. Heat Index Dew Point Humidity Pressure Visibility Wind Dir Wind Speed Gust Speed Precip Events Conditions
12:53 AM 60.1 °F - 57.0 °F 90% 29.91 in 10.0 mi Calm Calm - N/A   Scattered Clouds
1:53 AM 61.0 °F - 57.0 °F 87% 29.91 in 10.0 mi SSW 3.5 mph - N/A   Mostly Cloudy
2:53 AM 61.0 °F - 57.9 °F 90% 29.91 in 10.0 mi SW 4.6 mph - N/A   Partly Cloudy
3:53 AM 57.9 °F - 55.9 °F 93% 29.90 in 10.0 mi Calm Calm - N/A   Clear
4:53 AM 59.0 °F - 57.0 °F 93% 29.89 in 10.0 mi SW 3.5 mph - N/A   Clear
5:53 AM 57.9 °F - 55.0 °F 90% 29.90 in 10.0 mi SW 3.5 mph - N/A   Clear
6:53 AM 62.1 °F - 57.0 °F 84% 29.91 in 10.0 mi SW 4.6 mph - N/A   Clear
7:53 AM 69.1 °F - 59.0 °F 70% 29.92 in 10.0 mi SSW 5.8 mph - N/A   Clear
8:53 AM 75.0 °F - 60.1 °F 60% 29.93 in 10.0 mi Variable 3.5 mph - N/A   Clear
9:53 AM 78.1 °F - 61.0 °F 56% 29.93 in 10.0 mi WSW 4.6 mph - N/A   Clear
10:53 AM 82.9 °F 82.8 °F 59.0 °F 44% 29.92 in 10.0 mi West 5.8 mph - N/A   Clear
11:53 AM 84.9 °F 83.7 °F 55.9 °F 37% 29.91 in 10.0 mi WNW 6.9 mph - N/A   Clear
12:53 PM 87.1 °F 85.1 °F 54.0 °F 32% 29.91 in 10.0 mi NW 5.8 mph - N/A   Clear
1:53 PM 87.1 °F 84.9 °F 53.1 °F 31% 29.91 in 10.0 mi North - - N/A   Clear
2:53 PM 87.1 °F 85.1 °F 54.0 °F 32% 29.90 in 10.0 mi Variable 6.9 mph - N/A   Clear
3:53 PM 88.0 °F 86.7 °F 57.0 °F 35% 29.88 in 10.0 mi Variable 4.6 mph 17.3 mph N/A   Partly Cloudy
4:53 PM 87.1 °F 85.7 °F 55.9 °F 35% 29.88 in 10.0 mi WNW 8.1 mph - N/A   Clear
5:53 PM 86.0 °F 84.7 °F 55.9 °F 36% 29.87 in 10.0 mi NNW 6.9 mph - N/A   Clear
6:53 PM 84.0 °F 82.6 °F 54.0 °F 35% 29.87 in 10.0 mi NW 6.9 mph - N/A   Partly Cloudy
7:53 PM 81.0 °F 80.8 °F 55.9 °F 42% 29.88 in 10.0 mi North 3.5 mph - N/A   Clear
8:53 PM 70.0 °F - 60.1 °F 71% 29.89 in 10.0 mi Calm Calm - N/A   Clear
9:53 PM 72.0 °F - 57.9 °F 61% 29.93 in 10.0 mi NE 5.8 mph - N/A   Partly Cloudy
10:53 PM 70.0 °F - 57.9 °F 65% 29.94 in 10.0 mi ENE 3.5 mph - N/A   Scattered Clouds
11:53 PM 68.0 °F - 57.9 °F 70% 29.95 in 10.0 mi Calm Calm - N/A   Partly Cloudy